GFSFLT2_prec_precacc24_216.txt.gz
Total_Precipitation_Accumulation
0.02 0.02 0.03 0.03 0.04 0.04 0.02 0.02 0.01 0.00 0.00 0.00 0.00 0.00 0.00 0.00 0.00 0.00 0.00 0.00 0.00 0.00 0.00 0.00 0.00 0.00 0.00 0.00 0.00 0.00 0.00 0.00
0.02 0.03 0.05 0.10 0.13 0.10 0.06 0.02 0.06 0.04 0.03 0.00 0.01 0.00 0.00 0.00 0.00 0.00 0.00 0.00 0.00 0.00 0.00 0.00 0.00 0.00 0.00 0.00 0.00 0.00 0.00 0.00
0.03 0.04 0.05 0.09 0.15 0.11 0.14 0.04 0.05 0.08 0.08 0.05 0.04 0.02 0.02 0.05 0.05 0.00 0.01 0.01 0.00 0.00 0.00 0.00 0.00 0.00 0.00 0.00 0.00 0.00 0.00 0.00
0.03 0.03 0.04 0.09 0.09 0.06 0.12 0.06 0.04 0.02 0.04 0.04 0.06 0.06 0.08 0.11 0.10 0.04 0.03 0.01 0.00 0.00 0.00 0.00 0.00 0.00 0.00 0.00 0.00 0.00 0.00 0.00
0.02 0.03 0.04 0.08 0.05 0.07 0.08 0.04 0.03 0.02 0.04 0.03 0.03 0.07 0.07 0.12 0.12 0.05 0.02 0.01 0.00 0.00 0.00 0.00 0.00 0.00 0.00 0.00 0.00 0.00 0.00 0.00
0.01 0.03 0.04 0.07 0.03 0.03 0.06 0.04 0.06 0.05 0.05 0.04 0.04 0.11 0.20 0.26 0.26 0.21 0.07 0.01 0.00 0.00 0.00 0.00 0.00 0.00 0.00 0.00 0.00 0.00 0.00 0.00
0.01 0.02 0.04 0.04 0.02 0.01 0.02 0.04 0.05 0.04 0.08 0.04 0.04 0.15 0.32 0.37 0.43 0.48 0.30 0.10 0.02 0.00 0.00 0.00 0.00 0.00 0.00 0.00 0.00 0.00 0.00 0.00
0.01 0.03 0.03 0.03 0.02 0.02 0.03 0.03 0.03 0.06 0.08 0.08 0.07 0.20 0.35 0.40 0.43 0.50 0.38 0.15 0.06 0.01 0.00 0.00 0.00 0.00 0.00 0.00 0.00 0.00 0.00 0.00
0.00 0.01 0.02 0.04 0.05 0.06 0.06 0.06 0.04 0.09 0.17 0.21 0.22 0.20 0.27 0.40 0.43 0.47 0.39 0.20 0.10 0.02 0.01 0.00 0.00 0.00 0.00 0.00 0.02 0.00 0.00 0.00
0.01 0.01 0.02 0.11 0.17 0.21 0.20 0.26 0.29 0.41 0.62 0.63 0.49 0.58 0.65 0.66 0.48 0.46 0.48 0.35 0.10 0.02 0.01 0.02 0.01 0.00 0.01 0.01 0.01 0.00 0.00 0.00
0.00 0.04 0.01 0.07 0.19 0.27 0.33 0.44 0.50 0.63 0.84 0.90 0.94 1.25 1.43 1.24 1.10 1.06 0.85 0.52 0.27 0.12 0.02 0.01 0.01 0.00 0.00 0.00 0.00 0.00 0.00 0.00
0.00 0.03 0.03 0.13 0.24 0.27 0.36 0.37 0.38 0.41 0.48 0.58 0.59 0.63 0.73 0.97 1.21 1.05 1.16 1.13 0.87 0.59 0.24 0.07 0.01 0.00 0.00 0.00 0.00 0.00 0.00 0.00
0.00 0.01 0.05 0.25 0.32 0.31 0.38 0.35 0.37 0.47 0.38 0.51 0.56 0.44 0.44 0.56 0.84 1.25 1.45 1.25 1.30 1.21 0.76 0.40 0.15 0.03 0.01 0.00 0.01 0.00 0.00 0.00
0.01 0.07 0.19 0.33 0.39 0.40 0.40 0.39 0.40 0.50 0.68 0.63 0.64 0.61 0.53 0.43 0.48 0.56 0.56 0.73 0.66 0.51 0.53 0.58 0.45 0.20 0.04 0.02 0.03 0.03 0.02 0.01
0.07 0.16 0.30 0.33 0.38 0.35 0.34 0.50 0.53 0.50 0.51 0.52 0.56 0.65 0.67 0.55 0.52 0.61 0.57 0.47 0.37 0.39 0.41 0.40 0.34 0.25 0.14 0.05 0.02 0.00 0.01 0.01
0.14 0.13 0.15 0.16 0.20 0.26 0.28 0.29 0.25 0.23 0.25 0.32 0.35 0.52 0.90 1.16 1.14 1.09 1.10 1.16 0.96 0.68 0.50 0.47 0.45 0.40 0.18 0.05 0.02 0.01 0.00 0.00
0.04 0.10 0.04 0.04 0.17 0.19 0.16 0.17 0.15 0.14 0.16 0.21 0.33 0.49 0.69 1.01 1.15 1.12 1.17 1.19 1.04 0.99 0.78 0.67 0.59 0.42 0.32 0.14 0.03 0.01 0.00 0.00
0.00 0.02 0.06 0.05 0.10 0.21 0.29 0.29 0.20 0.12 0.10 0.10 0.13 0.20 0.40 0.72 0.90 0.97 0.97 0.91 0.96 0.81 0.53 0.43 0.47 0.50 0.37 0.25 0.11 0.04 0.02 0.00
0.00 0.00 0.02 0.06 0.06 0.08 0.16 0.23 0.25 0.25 0.25 0.24 0.19 0.13 0.10 0.19 0.41 0.56 0.80 0.83 0.73 0.72 0.71 0.61 0.48 0.38 0.36 0.31 0.12 0.06 0.04 0.03
0.00 0.00 0.00 0.01 0.02 0.03 0.04 0.05 0.10 0.12 0.12 0.14 0.19 0.22 0.18 0.12 0.09 0.11 0.23 0.55 0.78 0.84 0.72 0.63 0.64 0.50 0.38 0.26 0.24 0.11 0.09 0.03

GFSFLT2_prec_precacc24_222.txt.gz
Total_Precipitation_Accumulation
0.00 0.00 0.01 0.01 0.02 0.02 0.00 0.00 0.00 0.00 0.00 0.00 0.00 0.00 0.00 0.00 0.00 0.00 0.00 0.00 0.00 0.00 0.00 0.00 0.00 0.00 0.00 0.00 0.00 0.00 0.00 0.00
0.01 0.01 0.01 0.01 0.05 0.06 0.04 0.01 0.04 0.03 0.02 0.00 0.01 0.00 0.00 0.00 0.00 0.00 0.00 0.00 0.00 0.00 0.00 0.00 0.00 0.00 0.00 0.00 0.00 0.00 0.00 0.00
0.01 0.01 0.02 0.03 0.10 0.05 0.08 0.02 0.04 0.08 0.08 0.05 0.04 0.01 0.02 0.04 0.06 0.05 0.07 0.03 0.01 0.00 0.00 0.00 0.01 0.00 0.00 0.00 0.00 0.00 0.00 0.00
0.02 0.02 0.03 0.07 0.07 0.04 0.09 0.05 0.04 0.02 0.04 0.04 0.06 0.05 0.08 0.13 0.16 0.13 0.12 0.05 0.01 0.00 0.00 0.00 0.00 0.00 0.00 0.00 0.00 0.00 0.00 0.00
0.02 0.02 0.04 0.08 0.04 0.05 0.06 0.05 0.03 0.02 0.05 0.03 0.04 0.09 0.08 0.16 0.18 0.09 0.07 0.05 0.02 0.00 0.00 0.00 0.00 0.00 0.00 0.00 0.00 0.00 0.00 0.00
0.01 0.03 0.04 0.07 0.03 0.02 0.04 0.05 0.06 0.06 0.05 0.05 0.06 0.13 0.15 0.23 0.25 0.22 0.13 0.09 0.05 0.01 0.00 0.00 0.00 0.00 0.00 0.00 0.00 0.00 0.00 0.00
0.01 0.02 0.04 0.04 0.02 0.01 0.02 0.03 0.06 0.05 0.07 0.05 0.07 0.18 0.26 0.27 0.37 0.47 0.34 0.25 0.15 0.06 0.01 0.00 0.00 0.00 0.00 0.00 0.00 0.00 0.00 0.00
0.00 0.02 0.03 0.03 0.02 0.02 0.02 0.03 0.03 0.07 0.08 0.09 0.08 0.23 0.38 0.37 0.44 0.55 0.50 0.35 0.31 0.18 0.08 0.03 0.01 0.01 0.01 0.01 0.01 0.00 0.00 0.00
0.00 0.01 0.02 0.04 0.05 0.06 0.06 0.06 0.04 0.11 0.21 0.25 0.25 0.25 0.37 0.56 0.63 0.70 0.70 0.55 0.42 0.28 0.17 0.09 0.07 0.07 0.06 0.05 0.04 0.00 0.00 0.00
0.00 0.01 0.02 0.11 0.18 0.21 0.20 0.27 0.31 0.46 0.68 0.69 0.53 0.62 0.74 0.89 0.84 0.96 1.24 1.32 1.20 1.18 0.95 0.57 0.21 0.15 0.16 0.14 0.07 0.02 0.00 0.00
0.00 0.03 0.01 0.07 0.20 0.31 0.38 0.47 0.54 0.72 0.98 1.01 1.03 1.30 1.52 1.47 1.44 1.66 1.63 1.70 1.61 1.24 0.82 0.58 0.39 0.38 0.37 0.31 0.24 0.12 0.03 0.00
0.00 0.03 0.03 0.15 0.29 0.33 0.43 0.43 0.47 0.53 0.66 0.84 0.80 0.78 0.89 1.18 1.48 1.32 1.40 1.42 1.48 1.24 1.08 1.01 0.92 0.83 0.79 0.78 0.64 0.39 0.17 0.03
0.00 0.01 0.05 0.28 0.38 0.41 0.50 0.46 0.47 0.63 0.58 0.78 0.83 0.65 0.64 0.77 1.05 1.42 1.57 1.37 1.43 1.36 1.01 0.86 0.83 0.72 0.69 0.79 0.72 0.45 0.25 0.11
0.01 0.07 0.18 0.33 0.40 0.46 0.51 0.53 0.60 0.72 0.92 0.89 0.88 0.77 0.64 0.54 0.62 0.66 0.63 0.79 0.72 0.57 0.59 0.68 0.78 0.72 0.62 0.72 0.81 0.78 0.59 0.31
0.07 0.16 0.28 0.28 0.31 0.35 0.40 0.63 0.71 0.70 0.76 0.83 0.88 0.95 0.90 0.78 0.77 0.75 0.64 0.51 0.41 0.44 0.48 0.46 0.45 0.55 0.66 0.54 0.64 0.57 0.45 0.46
0.14 0.12 0.13 0.13 0.16 0.23 0.25 0.29 0.28 0.29 0.33 0.45 0.50 0.73 1.20 1.43 1.41 1.29 1.22 1.22 1.02 0.78 0.67 0.62 0.62 0.67 0.78 0.74 0.59 0.47 0.40 0.50
0.04 0.10 0.04 0.03 0.12 0.14 0.12 0.14 0.14 0.13 0.17 0.26 0.40 0.58 0.80 1.19 1.45 1.55 1.48 1.47 1.33 1.22 1.12 1.06 0.91 0.80 0.88 0.80 0.62 0.55 0.56 0.48
0.00 0.01 0.04 0.01 0.03 0.12 0.20 0.21 0.15 0.11 0.12 0.13 0.16 0.24 0.46 0.83 1.13 1.34 1.46 1.32 1.35 1.04 0.72 0.65 0.62 0.68 0.63 0.62 0.57 0.52 0.54 0.46
0.00 0.00 0.01 0.02 0.00 0.01 0.07 0.14 0.18 0.21 0.23 0.25 0.21 0.15 0.15 0.26 0.51 0.73 1.06 1.15 1.13 1.13 0.98 0.78 0.54 0.43 0.46 0.48 0.38 0.41 0.35 0.47
0.00 0.00 0.00 0.00 0.00 0.00 0.01 0.02 0.06 0.09 0.11 0.14 0.19 0.22 0.19 0.14 0.14 0.19 0.32 0.66 0.96 1.13 1.10 0.94 0.75 0.53 0.41 0.33 0.36 0.33 0.38 0.40

GFSFLT2_prec_precacc24_228.txt.gz
Total_Precipitation_Accumulation
0.00 0.00 0.00 0.00 0.00 0.00 0.00 0.00 0.00 0.00 0.00 0.00 0.00 0.00 0.00 0.00 0.00 0.00 0.00 0.00 0.00 0.00 0.00 0.00 0.00 0.00 0.00 0.00 0.00 0.00 0.00 0.00
0.00 0.00 0.00 0.00 0.00 0.00 0.01 0.00 0.04 0.02 0.02 0.00 0.01 0.00 0.00 0.00 0.00 0.00 0.00 0.00 0.00 0.00 0.00 0.00 0.00 0.00 0.00 0.00 0.00 0.00 0.00 0.00
0.00 0.00 0.00 0.00 0.00 0.01 0.01 0.00 0.03 0.07 0.08 0.05 0.04 0.01 0.02 0.04 0.06 0.05 0.06 0.03 0.01 0.00 0.00 0.00 0.01 0.00 0.00 0.00 0.00 0.00 0.00 0.00
0.00 0.00 0.00 0.00 0.01 0.01 0.01 0.01 0.01 0.01 0.03 0.04 0.06 0.05 0.08 0.12 0.14 0.10 0.10 0.05 0.02 0.01 0.00 0.00 0.00 0.00 0.00 0.00 0.00 0.00 0.00 0.00
0.00 0.00 0.00 0.00 0.01 0.02 0.04 0.03 0.02 0.02 0.02 0.03 0.04 0.09 0.09 0.15 0.16 0.08 0.06 0.05 0.02 0.02 0.00 0.00 0.00 0.00 0.00 0.00 0.00 0.00 0.00 0.00
0.01 0.02 0.01 0.02 0.00 0.01 0.03 0.04 0.04 0.03 0.03 0.03 0.06 0.14 0.15 0.26 0.29 0.23 0.12 0.10 0.06 0.03 0.02 0.00 0.00 0.00 0.00 0.00 0.01 0.01 0.00 0.02
0.00 0.01 0.02 0.03 0.02 0.01 0.02 0.03 0.05 0.03 0.04 0.05 0.08 0.21 0.29 0.37 0.45 0.57 0.37 0.25 0.18 0.10 0.04 0.01 0.01 0.01 0.02 0.02 0.03 0.01 0.00 0.03
0.00 0.00 0.02 0.02 0.02 0.02 0.03 0.05 0.05 0.08 0.07 0.10 0.19 0.33 0.52 0.56 0.56 0.60 0.58 0.38 0.35 0.25 0.12 0.05 0.02 0.02 0.03 0.02 0.03 0.02 0.00 0.07
0.00 0.00 0.01 0.03 0.05 0.06 0.06 0.06 0.08 0.14 0.24 0.25 0.27 0.38 0.59 0.82 0.87 0.84 0.76 0.61 0.50 0.42 0.26 0.12 0.10 0.10 0.08 0.07 0.07 0.05 0.04 0.08
0.00 0.00 0.00 0.09 0.17 0.23 0.23 0.29 0.34 0.49 0.73 0.79 0.59 0.67 0.91 1.16 1.06 1.09 1.39 1.45 1.35 1.31 1.07 0.80 0.60 0.46 0.39 0.28 0.16 0.10 0.08 0.07
0.00 0.02 0.01 0.06 0.18 0.31 0.40 0.49 0.57 0.76 1.06 1.12 1.20 1.51 1.71 1.68 1.60 1.83 1.77 1.89 1.78 1.38 0.99 0.81 0.67 0.62 0.58 0.45 0.34 0.20 0.14 0.09
0.00 0.03 0.03 0.14 0.25 0.31 0.43 0.44 0.49 0.56 0.71 0.91 0.87 0.93 1.15 1.52 1.70 1.54 1.51 1.53 1.64 1.42 1.32 1.27 1.09 0.92 0.86 0.81 0.70 0.51 0.36 0.26
0.00 0.01 0.05 0.27 0.33 0.34 0.45 0.44 0.48 0.66 0.62 0.81 0.88 0.75 0.84 1.08 1.45 1.77 1.69 1.43 1.53 1.49 1.16 0.99 0.95 0.82 0.80 0.86 0.78 0.58 0.41 0.27
0.01 0.07 0.18 0.33 0.38 0.38 0.42 0.47 0.57 0.73 0.98 0.99 1.00 0.92 0.85 0.82 1.08 1.15 0.85 0.95 0.97 0.82 0.82 0.84 0.94 0.82 0.69 0.78 0.93 0.93 0.74 0.44
0.07 0.16 0.28 0.28 0.30 0.31 0.34 0.53 0.62 0.67 0.77 0.90 0.99 1.11 1.13 1.07 1.11 1.18 0.97 0.79 0.70 0.74 0.76 0.66 0.62 0.67 0.74 0.60 0.68 0.61 0.51 0.52
0.13 0.10 0.13 0.13 0.16 0.23 0.22 0.25 0.23 0.23 0.30 0.43 0.51 0.78 1.32 1.71 1.86 1.85 1.82 1.85 1.85 1.74 1.58 1.27 1.11 1.06 1.16 0.95 0.66 0.48 0.42 0.58
0.03 0.04 0.03 0.03 0.12 0.14 0.12 0.12 0.10 0.10 0.15 0.24 0.38 0.57 0.83 1.32 1.74 2.13 2.40 2.48 2.34 2.33 2.45 2.56 2.25 1.73 1.76 1.58 1.28 0.95 0.66 0.50
0.00 0.00 0.01 0.01 0.03 0.12 0.19 0.20 0.14 0.06 0.07 0.10 0.13 0.21 0.44 0.82 1.13 1.36 1.56 1.68 1.86 1.85 1.75 1.85 1.79 1.65 1.71 1.71 1.44 1.24 1.05 0.67
0.00 0.00 0.00 0.01 0.00 0.01 0.07 0.13 0.16 0.15 0.15 0.19 0.17 0.12 0.12 0.24 0.51 0.74 1.08 1.25 1.35 1.57 1.67 1.62 1.59 1.24 1.00 1.04 0.87 0.89 0.79 0.83
0.00 0.00 0.00 0.00 0.00 0.00 0.01 0.01 0.02 0.03 0.04 0.06 0.11 0.15 0.13 0.10 0.11 0.19 0.33 0.69 1.01 1.27 1.38 1.36 1.43 1.44 1.31 1.14 1.01 0.78 0.76 0.74

GFSFLT2_prec_precacc24_234.txt.gz
Total_Precipitation_Accumulation
0.00 0.00 0.00 0.00 0.00 0.00 0.00 0.00 0.00 0.00 0.00 0.00 0.00 0.00 0.00 0.00 0.00 0.00 0.00 0.00 0.00 0.00 0.00 0.00 0.00 0.00 0.00 0.00 0.00 0.00 0.00 0.00
0.00 0.00 0.00 0.00 0.00 0.00 0.01 0.00 0.00 0.00 0.00 0.00 0.00 0.00 0.00 0.00 0.00 0.00 0.00 0.00 0.00 0.00 0.00 0.00 0.00 0.00 0.00 0.00 0.00 0.00 0.00 0.01
0.00 0.00 0.00 0.00 0.00 0.01 0.01 0.00 0.00 0.00 0.00 0.00 0.00 0.01 0.02 0.04 0.06 0.05 0.06 0.03 0.01 0.00 0.00 0.00 0.01 0.00 0.00 0.00 0.00 0.00 0.00 0.01
0.00 0.01 0.03 0.02 0.03 0.02 0.01 0.01 0.00 0.00 0.00 0.01 0.01 0.02 0.07 0.12 0.14 0.10 0.10 0.05 0.02 0.01 0.00 0.00 0.00 0.00 0.00 0.00 0.00 0.00 0.00 0.00
0.06 0.05 0.10 0.08 0.08 0.07 0.05 0.03 0.02 0.01 0.01 0.00 0.02 0.08 0.09 0.15 0.16 0.08 0.06 0.05 0.02 0.02 0.00 0.00 0.00 0.00 0.00 0.00 0.00 0.00 0.00 0.00
0.01 0.04 0.08 0.07 0.03 0.03 0.06 0.05 0.04 0.03 0.02 0.02 0.06 0.14 0.13 0.25 0.28 0.23 0.12 0.10 0.06 0.03 0.02 0.00 0.00 0.00 0.00 0.00 0.01 0.01 0.00 0.02
0.00 0.01 0.05 0.08 0.06 0.02 0.03 0.05 0.06 0.04 0.04 0.06 0.07 0.21 0.28 0.36 0.45 0.57 0.37 0.25 0.18 0.11 0.04 0.01 0.01 0.01 0.02 0.02 0.03 0.01 0.00 0.03
0.00 0.00 0.00 0.00 0.02 0.04 0.04 0.07 0.11 0.10 0.08 0.22 0.38 0.40 0.64 0.80 0.86 0.89 0.69 0.40 0.52 0.39 0.23 0.13 0.08 0.04 0.03 0.02 0.03 0.02 0.00 0.07
0.00 0.00 0.00 0.00 0.01 0.01 0.02 0.02 0.09 0.13 0.18 0.24 0.44 0.68 0.86 1.15 1.14 1.11 1.00 0.84 0.65 0.73 0.53 0.42 0.31 0.15 0.09 0.08 0.05 0.05 0.05 0.08
0.00 0.00 0.00 0.00 0.01 0.02 0.07 0.09 0.15 0.29 0.46 0.57 0.48 0.63 1.04 1.35 1.19 1.17 1.54 1.84 1.81 1.56 1.40 1.09 0.78 0.60 0.47 0.28 0.15 0.11 0.09 0.08
0.00 0.00 0.00 0.01 0.03 0.14 0.25 0.23 0.27 0.43 0.66 0.73 0.92 1.28 1.56 1.65 1.72 1.96 1.96 2.28 2.19 1.74 1.25 1.07 0.92 0.79 0.75 0.55 0.37 0.21 0.17 0.11
0.00 0.00 0.01 0.05 0.09 0.16 0.27 0.26 0.27 0.26 0.32 0.51 0.56 0.66 0.89 1.41 1.65 1.56 1.62 1.73 1.88 1.67 1.57 1.44 1.21 1.11 1.06 1.01 0.84 0.57 0.39 0.27
0.00 0.00 0.02 0.10 0.19 0.24 0.36 0.34 0.36 0.40 0.36 0.45 0.54 0.58 0.70 1.01 1.43 1.73 1.72 1.52 1.64 1.66 1.41 1.24 1.12 0.97 1.01 1.09 0.91 0.66 0.45 0.30
0.00 0.01 0.04 0.13 0.23 0.29 0.36 0.37 0.39 0.37 0.46 0.47 0.54 0.54 0.62 0.71 1.06 1.14 0.84 0.98 1.05 0.96 1.03 1.20 1.31 1.16 1.01 1.22 1.42 1.37 1.05 0.62
0.01 0.03 0.08 0.15 0.20 0.28 0.30 0.35 0.33 0.35 0.41 0.49 0.55 0.67 0.74 0.78 0.97 1.11 0.96 0.87 0.86 1.00 1.12 1.11 1.13 1.29 1.26 1.02 1.06 0.94 0.77 0.77
0.00 0.01 0.03 0.05 0.09 0.16 0.19 0.22 0.16 0.13 0.13 0.18 0.22 0.39 0.70 1.09 1.60 1.71 1.76 1.84 1.90 1.93 1.93 1.88 1.99 2.21 2.42 2.25 1.92 1.51 1.22 1.25
0.00 0.00 0.00 0.00 0.01 0.02 0.04 0.08 0.08 0.05 0.06 0.08 0.11 0.21 0.44 0.81 1.33 1.91 2.30 2.45 2.30 2.37 2.57 2.74 2.53 2.17 2.38 2.35 2.41 2.34 1.92 1.38
0.00 0.00 0.00 0.00 0.00 0.00 0.01 0.02 0.05 0.05 0.05 0.07 0.08 0.08 0.17 0.36 0.68 1.01 1.23 1.62 1.84 1.84 1.76 1.90 1.93 1.93 2.07 2.14 1.97 1.79 1.65 1.39
0.00 0.00 0.00 0.00 0.00 0.00 0.00 0.00 0.01 0.03 0.12 0.18 0.16 0.11 0.08 0.10 0.20 0.42 0.74 0.98 1.31 1.56 1.67 1.65 1.68 1.42 1.22 1.33 1.25 1.34 1.24 1.32
0.00 0.00 0.00 0.00 0.00 0.00 0.00 0.01 0.01 0.01 0.02 0.05 0.11 0.14 0.12 0.09 0.08 0.13 0.20 0.42 0.78 1.22 1.46 1.45 1.56 1.60 1.53 1.40 1.34 1.09 1.12 1.17

GFSFLT2_prec_precacc24_240.txt.gz
Total_Precipitation_Accumulation
0.00 0.00 0.00 0.00 0.00 0.00 0.00 0.00 0.00 0.00 0.00 0.00 0.00 0.00 0.00 0.00 0.00 0.00 0.00 0.00 0.00 0.00 0.00 0.00 0.00 0.00 0.00 0.00 0.00 0.00 0.00 0.00
0.00 0.00 0.00 0.00 0.00 0.00 0.00 0.00 0.00 0.00 0.00 0.00 0.00 0.00 0.00 0.00 0.00 0.00 0.00 0.00 0.00 0.00 0.00 0.00 0.00 0.00 0.00 0.00 0.00 0.00 0.00 0.01
0.00 0.00 0.00 0.00 0.00 0.01 0.00 0.00 0.00 0.00 0.00 0.00 0.00 0.00 0.00 0.00 0.01 0.05 0.06 0.03 0.01 0.00 0.00 0.00 0.01 0.00 0.00 0.00 0.00 0.00 0.00 0.01
0.05 0.07 0.10 0.05 0.04 0.02 0.01 0.00 0.00 0.00 0.00 0.01 0.01 0.01 0.01 0.03 0.07 0.10 0.10 0.05 0.02 0.01 0.00 0.00 0.00 0.00 0.00 0.00 0.00 0.00 0.00 0.00
0.10 0.15 0.16 0.15 0.16 0.14 0.11 0.06 0.05 0.08 0.08 0.05 0.04 0.02 0.04 0.08 0.08 0.06 0.07 0.05 0.02 0.02 0.00 0.00 0.00 0.00 0.00 0.00 0.00 0.00 0.00 0.00
0.02 0.08 0.13 0.10 0.12 0.20 0.22 0.20 0.17 0.16 0.09 0.06 0.07 0.05 0.06 0.16 0.14 0.11 0.12 0.12 0.08 0.04 0.02 0.00 0.00 0.00 0.00 0.00 0.01 0.01 0.00 0.02
0.00 0.01 0.07 0.11 0.12 0.14 0.13 0.12 0.11 0.09 0.10 0.12 0.10 0.20 0.18 0.27 0.31 0.32 0.27 0.29 0.24 0.20 0.09 0.05 0.02 0.02 0.02 0.03 0.05 0.02 0.00 0.03
0.00 0.00 0.00 0.01 0.03 0.06 0.08 0.15 0.18 0.16 0.13 0.25 0.41 0.44 0.58 0.69 0.73 0.64 0.48 0.40 0.62 0.55 0.38 0.27 0.19 0.18 0.20 0.20 0.17 0.13 0.05 0.09
0.00 0.00 0.00 0.00 0.01 0.01 0.02 0.03 0.09 0.13 0.16 0.20 0.36 0.57 0.67 0.81 0.78 0.77 0.73 0.75 0.66 0.84 0.71 0.64 0.61 0.44 0.41 0.44 0.29 0.25 0.21 0.19
0.00 0.00 0.00 0.00 0.01 0.02 0.03 0.04 0.06 0.10 0.13 0.21 0.21 0.26 0.56 0.75 0.77 0.78 1.14 1.54 1.74 1.58 1.46 1.15 0.83 0.71 0.62 0.43 0.27 0.23 0.18 0.16
0.00 0.00 0.00 0.01 0.02 0.05 0.08 0.07 0.08 0.14 0.22 0.23 0.27 0.27 0.33 0.55 0.71 0.97 1.17 1.78 1.93 1.65 1.26 1.12 0.96 0.84 0.80 0.65 0.48 0.28 0.23 0.18
0.00 0.00 0.01 0.02 0.05 0.08 0.10 0.09 0.11 0.16 0.23 0.33 0.28 0.30 0.43 0.56 0.53 0.59 0.52 0.62 1.02 1.08 1.35 1.43 1.26 1.19 1.14 1.06 0.90 0.64 0.45 0.31
0.00 0.00 0.01 0.04 0.08 0.10 0.13 0.12 0.13 0.20 0.24 0.30 0.32 0.31 0.41 0.52 0.62 0.56 0.31 0.28 0.35 0.46 0.65 0.85 1.02 1.04 1.12 1.18 0.97 0.74 0.51 0.33
0.00 0.00 0.00 0.02 0.06 0.11 0.15 0.15 0.21 0.25 0.32 0.36 0.36 0.31 0.32 0.40 0.60 0.61 0.33 0.28 0.41 0.46 0.50 0.63 0.87 0.99 1.08 1.32 1.50 1.44 1.09 0.67
0.00 0.00 0.00 0.00 0.01 0.05 0.09 0.13 0.18 0.21 0.28 0.38 0.44 0.47 0.46 0.52 0.59 0.58 0.42 0.42 0.51 0.63 0.71 0.72 0.80 1.04 1.18 1.22 1.35 1.14 0.90 0.83
0.00 0.00 0.00 0.00 0.00 0.00 0.01 0.04 0.05 0.07 0.09 0.14 0.19 0.27 0.42 0.55 0.72 0.76 0.72 0.71 0.97 1.26 1.43 1.42 1.54 1.81 2.24 2.21 2.07 1.85 1.58 1.55
0.00 0.00 0.00 0.00 0.00 0.00 0.00 0.01 0.01 0.01 0.03 0.05 0.08 0.11 0.16 0.32 0.59 1.02 1.23 1.29 1.30 1.41 1.79 2.08 1.95 1.77 2.08 2.23 2.39 2.38 2.12 1.81
0.00 0.00 0.00 0.00 0.00 0.00 0.00 0.00 0.00 0.01 0.03 0.03 0.03 0.03 0.06 0.12 0.26 0.41 0.62 0.79 0.91 1.05 1.25 1.47 1.47 1.44 1.72 1.91 1.88 1.78 1.69 1.52
0.00 0.00 0.00 0.00 0.00 0.00 0.00 0.00 0.00 0.00 0.00 0.01 0.02 0.02 0.04 0.07 0.13 0.19 0.31 0.45 0.64 0.87 0.98 1.05 1.21 1.05 0.87 1.05 1.16 1.33 1.27 1.39
0.00 0.00 0.00 0.00 0.00 0.00 0.00 0.00 0.00 0.00 0.01 0.01 0.01 0.01 0.02 0.03 0.06 0.13 0.14 0.20 0.31 0.52 0.77 0.83 0.92 1.11 1.16 1.16 1.13 1.02 1.13 1.31

GFSFLT2_prec_precacc24_243.txt.gz
Total_Precipitation_Accumulation
0.00 0.00 0.00 0.00 0.00 0.00 0.00 0.00 0.00 0.00 0.00 0.00 0.00 0.00 0.00 0.00 0.00 0.00 0.00 0.00 0.00 0.00 0.00 0.00 0.00 0.00 0.00 0.00 0.00 0.00 0.00 0.00
0.00 0.00 0.00 0.00 0.00 0.00 0.00 0.00 0.00 0.00 0.00 0.00 0.00 0.00 0.00 0.00 0.00 0.00 0.00 0.00 0.00 0.00 0.00 0.00 0.00 0.00 0.00 0.00 0.00 0.00 0.00 0.01
0.00 0.00 0.00 0.00 0.00 0.00 0.00 0.00 0.00 0.00 0.00 0.00 0.00 0.00 0.00 0.00 0.00 0.00 0.02 0.02 0.01 0.00 0.00 0.00 0.00 0.00 0.00 0.00 0.00 0.00 0.00 0.01
0.05 0.07 0.10 0.05 0.04 0.02 0.01 0.00 0.00 0.00 0.00 0.01 0.00 0.00 0.00 0.01 0.01 0.01 0.02 0.03 0.02 0.01 0.00 0.00 0.01 0.02 0.01 0.00 0.00 0.00 0.00 0.00
0.10 0.15 0.16 0.15 0.16 0.14 0.10 0.06 0.05 0.08 0.08 0.05 0.05 0.04 0.06 0.03 0.03 0.02 0.02 0.03 0.02 0.02 0.01 0.00 0.00 0.02 0.03 0.01 0.00 0.00 0.00 0.00
0.02 0.08 0.13 0.10 0.12 0.20 0.22 0.20 0.17 0.16 0.09 0.06 0.08 0.04 0.06 0.12 0.10 0.07 0.05 0.07 0.06 0.05 0.03 0.00 0.01 0.01 0.01 0.01 0.01 0.01 0.00 0.02
0.00 0.01 0.07 0.11 0.12 0.14 0.14 0.12 0.10 0.08 0.09 0.11 0.09 0.16 0.15 0.25 0.27 0.28 0.21 0.18 0.17 0.17 0.09 0.06 0.03 0.04 0.04 0.04 0.06 0.06 0.02 0.04
0.00 0.00 0.00 0.01 0.03 0.06 0.09 0.15 0.18 0.15 0.12 0.24 0.39 0.40 0.51 0.64 0.67 0.57 0.36 0.21 0.49 0.47 0.35 0.27 0.20 0.19 0.21 0.22 0.20 0.22 0.16 0.12
0.00 0.00 0.00 0.00 0.01 0.01 0.02 0.03 0.09 0.12 0.13 0.17 0.35 0.54 0.62 0.70 0.62 0.63 0.51 0.49 0.48 0.73 0.66 0.63 0.62 0.46 0.43 0.45 0.30 0.27 0.24 0.26
0.00 0.00 0.00 0.00 0.01 0.02 0.03 0.03 0.04 0.06 0.08 0.17 0.19 0.25 0.50 0.55 0.48 0.33 0.48 0.78 1.22 1.29 1.33 1.11 0.81 0.70 0.63 0.45 0.30 0.27 0.21 0.17
0.00 0.00 0.00 0.01 0.01 0.03 0.04 0.04 0.04 0.07 0.17 0.18 0.23 0.26 0.27 0.34 0.41 0.50 0.63 1.02 1.32 1.11 0.81 0.81 0.73 0.64 0.69 0.62 0.48 0.31 0.26 0.22
0.00 0.00 0.01 0.02 0.04 0.05 0.06 0.06 0.05 0.07 0.14 0.20 0.15 0.19 0.31 0.38 0.33 0.47 0.41 0.42 0.51 0.52 0.54 0.51 0.54 0.70 0.73 0.79 0.84 0.63 0.45 0.32
0.00 0.00 0.00 0.00 0.02 0.05 0.06 0.07 0.08 0.10 0.12 0.15 0.20 0.18 0.25 0.36 0.51 0.49 0.25 0.21 0.25 0.34 0.42 0.40 0.36 0.41 0.57 0.61 0.64 0.64 0.50 0.33
0.00 0.00 0.00 0.00 0.01 0.02 0.05 0.07 0.11 0.13 0.18 0.26 0.29 0.26 0.27 0.34 0.54 0.57 0.29 0.25 0.37 0.43 0.46 0.53 0.55 0.50 0.55 0.72 0.94 1.07 0.91 0.63
0.00 0.00 0.00 0.00 0.00 0.00 0.00 0.01 0.05 0.08 0.16 0.25 0.34 0.36 0.36 0.42 0.52 0.51 0.39 0.41 0.49 0.60 0.66 0.67 0.70 0.76 0.68 0.76 0.81 0.71 0.69 0.70
0.00 0.00 0.00 0.00 0.00 0.00 0.00 0.00 0.00 0.02 0.03 0.07 0.12 0.20 0.32 0.48 0.68 0.73 0.70 0.70 0.94 1.20 1.30 1.28 1.41 1.59 1.75 1.66 1.63 1.54 1.37 1.36
0.01 0.03 0.03 0.02 0.00 0.00 0.00 0.00 0.00 0.00 0.01 0.02 0.05 0.07 0.11 0.26 0.55 0.98 1.20 1.25 1.20 1.22 1.49 1.73 1.64 1.40 1.64 1.74 1.96 2.01 1.75 1.53
0.00 0.01 0.01 0.01 0.00 0.00 0.00 0.00 0.00 0.00 0.01 0.01 0.01 0.02 0.04 0.09 0.22 0.39 0.61 0.76 0.86 0.98 1.09 1.29 1.33 1.28 1.51 1.60 1.50 1.41 1.36 1.26
0.00 0.00 0.00 0.00 0.00 0.00 0.00 0.00 0.00 0.00 0.00 0.00 0.01 0.01 0.02 0.06 0.11 0.16 0.28 0.43 0.61 0.77 0.84 0.98 1.18 1.01 0.79 0.89 0.91 1.00 1.02 1.09
0.00 0.00 0.00 0.00 0.00 0.00 0.00 0.00 0.00 0.00 0.00 0.00 0.00 0.00 0.01 0.02 0.05 0.10 0.13 0.19 0.30 0.48 0.66 0.76 0.89 1.09 1.14 1.10 1.01 0.80 0.85 1.02

GFSFLT2_prec_precacc24_246.txt.gz
Total_Precipitation_Accumulation
0.00 0.00 0.00 0.00 0.00 0.00 0.00 0.00 0.00 0.00 0.00 0.00 0.00 0.00 0.00 0.00 0.00 0.00 0.00 0.00 0.00 0.00 0.00 0.00 0.00 0.00 0.00 0.00 0.00 0.00 0.00 0.00
0.00 0.00 0.00 0.00 0.00 0.00 0.00 0.00 0.00 0.00 0.00 0.00 0.00 0.00 0.00 0.00 0.00 0.00 0.00 0.00 0.00 0.00 0.00 0.00 0.00 0.00 0.00 0.00 0.00 0.00 0.00 0.01
0.00 0.00 0.00 0.00 0.00 0.00 0.00 0.00 0.00 0.00 0.00 0.00 0.00 0.00 0.00 0.00 0.00 0.00 0.00 0.00 0.00 0.00 0.00 0.00 0.00 0.00 0.00 0.00 0.00 0.00 0.00 0.01
0.05 0.07 0.10 0.05 0.04 0.02 0.01 0.00 0.00 0.00 0.00 0.01 0.01 0.00 0.00 0.00 0.00 0.00 0.00 0.00 0.01 0.00 0.00 0.00 0.01 0.01 0.01 0.00 0.00 0.00 0.00 0.00
0.10 0.16 0.17 0.17 0.17 0.14 0.10 0.06 0.05 0.08 0.08 0.06 0.05 0.04 0.05 0.03 0.03 0.01 0.02 0.02 0.01 0.01 0.01 0.01 0.00 0.02 0.03 0.01 0.00 0.00 0.00 0.00
0.02 0.08 0.13 0.12 0.16 0.20 0.22 0.20 0.17 0.16 0.09 0.05 0.07 0.05 0.10 0.12 0.10 0.07 0.06 0.05 0.04 0.04 0.03 0.02 0.01 0.01 0.01 0.01 0.02 0.01 0.00 0.02
0.00 0.02 0.09 0.11 0.18 0.17 0.16 0.15 0.10 0.12 0.15 0.16 0.16 0.26 0.22 0.27 0.28 0.27 0.20 0.14 0.11 0.14 0.09 0.06 0.03 0.06 0.06 0.05 0.06 0.06 0.03 0.05
0.00 0.00 0.00 0.01 0.03 0.06 0.10 0.20 0.23 0.19 0.16 0.33 0.51 0.45 0.55 0.67 0.66 0.55 0.33 0.18 0.36 0.39 0.31 0.25 0.19 0.21 0.26 0.27 0.23 0.23 0.20 0.15
0.00 0.00 0.00 0.00 0.01 0.01 0.02 0.03 0.09 0.12 0.12 0.16 0.35 0.53 0.59 0.64 0.59 0.54 0.42 0.39 0.34 0.59 0.56 0.56 0.56 0.39 0.38 0.42 0.30 0.29 0.25 0.28
0.00 0.00 0.00 0.00 0.00 0.02 0.03 0.03 0.03 0.05 0.06 0.15 0.16 0.22 0.47 0.52 0.41 0.28 0.39 0.57 0.64 0.43 0.53 0.59 0.63 0.57 0.47 0.32 0.24 0.25 0.22 0.19
0.00 0.00 0.00 0.00 0.01 0.02 0.03 0.03 0.04 0.05 0.07 0.12 0.18 0.22 0.24 0.32 0.37 0.37 0.39 0.60 0.59 0.53 0.46 0.56 0.58 0.47 0.44 0.35 0.24 0.19 0.23 0.22
0.00 0.00 0.00 0.00 0.00 0.01 0.03 0.03 0.03 0.03 0.05 0.06 0.07 0.15 0.27 0.35 0.26 0.32 0.28 0.32 0.42 0.43 0.51 0.48 0.36 0.36 0.35 0.28 0.26 0.25 0.28 0.28
0.00 0.00 0.00 0.00 0.00 0.00 0.00 0.01 0.03 0.04 0.04 0.03 0.05 0.10 0.20 0.31 0.42 0.38 0.19 0.16 0.22 0.31 0.40 0.40 0.33 0.34 0.45 0.39 0.26 0.29 0.27 0.22
0.00 0.00 0.00 0.00 0.00 0.00 0.00 0.00 0.00 0.02 0.07 0.10 0.12 0.15 0.21 0.29 0.47 0.51 0.26 0.23 0.35 0.40 0.45 0.52 0.53 0.47 0.50 0.62 0.71 0.69 0.52 0.38
0.00 0.00 0.00 0.00 0.00 0.00 0.00 0.00 0.00 0.00 0.02 0.07 0.12 0.16 0.24 0.29 0.35 0.44 0.35 0.38 0.47 0.58 0.65 0.67 0.69 0.74 0.66 0.74 0.73 0.58 0.47 0.39
0.00 0.00 0.00 0.00 0.00 0.00 0.00 0.00 0.00 0.00 0.00 0.01 0.03 0.06 0.13 0.28 0.44 0.56 0.60 0.65 0.91 1.17 1.27 1.27 1.38 1.55 1.64 1.53 1.51 1.40 1.20 1.05
0.01 0.03 0.03 0.02 0.01 0.00 0.00 0.00 0.00 0.00 0.00 0.00 0.00 0.02 0.05 0.14 0.29 0.59 0.93 1.01 1.01 1.17 1.46 1.69 1.63 1.38 1.52 1.57 1.80 1.84 1.56 1.34
0.00 0.01 0.01 0.01 0.01 0.00 0.00 0.01 0.01 0.00 0.00 0.00 0.00 0.00 0.00 0.00 0.03 0.05 0.12 0.37 0.51 0.81 1.05 1.26 1.31 1.26 1.47 1.54 1.42 1.30 1.16 1.07
0.00 0.00 0.00 0.00 0.00 0.00 0.00 0.00 0.00 0.00 0.00 0.00 0.00 0.00 0.00 0.01 0.03 0.02 0.05 0.13 0.25 0.47 0.70 0.88 1.16 0.99 0.78 0.88 0.91 0.99 0.96 0.95
0.00 0.00 0.00 0.00 0.00 0.00 0.01 0.00 0.00 0.00 0.00 0.00 0.00 0.00 0.01 0.01 0.02 0.04 0.05 0.09 0.13 0.23 0.38 0.52 0.82 1.08 1.13 1.09 1.01 0.80 0.84 0.95